Content
SEND FEEDBACK

Daily
Averages
Monthly
Summary
United States of America

HICO, WEST VIRGINIA


Home > North America > United States > West Virginia
Elevation: 198 feet     Latitude: 38 07N     Longitude: 081 00W

WEATHER
 
SELECT A DAY
Number of Records: 240,785;   Date Range: 1/1/95 - 7/7/14
 
SHARE

PRINT THIS DATA

[ ← Previous Day ]
WEATHER ALMANAC - JANUARY 31, 2013
[ Next Day → ]
[ °C ]   °F
Weather ElementAverageHighLow
Temperature27.8 °F37.4 °F (1:11 am)24.1 °F (2:51 pm)
Dewpoint20.5 °F35.6 °F (1:11 am)14 °F (8:51 am)
Humidity74.4 %93 % (1:11 am)58 % (8:51 am)
Barometer29.76 in29.96 in (5:51 pm)29.46 in (1:11 am)
Wind Speed16.1 mph26.5 mph (3:32 am)
Wind Gust44.9 mph (3:32 am)
Weather ElementAverage
Visibility5.4 mi
Wind DirectionW (273.6 °)

Weather ElementTotal
Precipitation0.09 in
Heating Degree Days34.3 (Base 65)
Averaged from 56 records on January 31, 2013
WEATHER CONDITIONS BREAKOUT
WIND DIRECTION BREAKOUT
WEATHER BY HOUR - JANUARY 31, 2013
[ °C ]   °F
Local TimeTemperatureDewpointHumidityBarometerVisibilityWind DirectionWind SpeedGust SpeedPrecipitationEventsConditions
1:11 AM37.4 °F35.6 °F93 %29.46 in5.0 miWNW (290°)17.3 mph23.0 mph0.01 inRainRain
1:19 AM37.4 °F33.8 °F87 %29.46 in6.0 miWest (280°)23.0 mph36.8 mph0.02 inRainRain
1:51 AM35.1 °F32.0 °F89 %29.51 in5.0 miWest (280°)15.0 mph25.3 mph0.02 inSnowLight Snow
2:05 AM33.8 °F30.2 °F87 %29.51 in5.0 miWest (280°)13.8 mph27.6 mph0.00 inSnowLight Snow
2:14 AM33.8 °F30.2 °F87 %29.52 in4.0 miWNW (290°)19.6 mph26.5 mph0.00 inSnowLight Snow
2:26 AM33.8 °F28.4 °F81 %29.52 in5.0 miWest (280°)20.7 mph34.5 mph0.00 inSnowLight Snow
2:51 AM34.0 °F27.0 °F75 %29.55 in9.0 miWest (270°)18.4 mph33.4 mph0.00 inOvercast
3:32 AM32.0 °F23.0 °F69 %29.56 in9.0 miWest (260°)26.5 mph44.9 mph0.00 inMostly Cloudy
3:51 AM32.0 °F21.9 °F66 %29.58 in10.0 miWest (270°)15.0 mph35.7 mph0.00 inOvercast
4:06 AM30.2 °F24.8 °F80 %29.58 in2.5 miWest (270°)20.7 mph29.9 mph0.00 inSnowLight Snow
4:14 AM30.2 °F24.8 °F80 %29.58 in1.5 miWNW (290°)16.1 mph28.8 mph0.01 inSnowLight Snow
4:19 AM30.2 °F23.0 °F75 %29.59 in3.0 miWest (280°)24.2 mph32.2 mph0.01 inSnowLight Snow
4:51 AM28.9 °F21.0 °F72 %29.63 in10.0 miWest (270°)20.7 mph39.1 mph0.01 inSnowLight Snow
5:02 AM28.4 °F19.4 °F69 %29.61 in9.0 miWNW (290°)17.3 mph34.5 mph0.00 inSnowLight Snow
5:09 AM28.4 °F19.4 °F69 %29.62 in9.0 miWNW (290°)17.3 mph31.1 mph0.00 inSnowLight Snow
5:51 AM28.0 °F19.9 °F72 %29.68 in5.0 miWest (280°)24.2 mph35.7 mph0.00 inSnowLight Snow
6:07 AM28.4 °F19.4 °F69 %29.65 in8.0 miWNW (290°)17.3 mph38.0 mph0.00 inSnowLight Snow
6:51 AM27.0 °F19.0 °F72 %29.70 in7.0 miWest (280°)11.5 mph26.5 mph0.00 inSnowLight Snow
7:36 AM26.6 °F19.4 °F74 %29.68 in9.0 miWest (280°)11.5 mph23.0 mph0.00 inSnowLight Snow
7:51 AM27.0 °F17.1 °F66 %29.71 in10.0 miWest (280°)19.6 mph25.3 mph0.00 inOvercast
8:51 AM27.0 °F14.0 °F58 %29.78 in10.0 miWest (280°)18.4 mph36.8 mph0.00 inOvercast
9:51 AM27.0 °F15.1 °F61 %29.82 in10.0 miWest (280°)18.4 mph28.8 mphOvercast
10:51 AM27.0 °F17.1 °F66 %29.85 in8.0 miWest (280°)17.3 mph28.8 mph0.00 inSnowLight Snow
10:58 AM26.6 °F17.6 °F69 %29.79 in7.0 miWNW (290°)17.3 mph24.2 mph0.00 inSnowLight Snow
11:13 AM26.6 °F19.4 °F74 %29.80 in1.5 miWSW (250°)24.2 mph29.9 mph0.00 inSnowLight Snow
11:19 AM24.8 °F19.4 °F80 %29.81 in0.5 miWest (260°)17.3 mph29.9 mph0.00 inSnowSnow
11:23 AM24.8 °F21.2 °F86 %29.81 in0.2 miWest (270°)18.4 mph28.8 mph0.00 inFog-SnowHeavy Snow
11:29 AM24.8 °F19.4 °F80 %29.81 in0.5 miWest (260°)18.4 mph28.8 mph0.00 inSnowSnow
11:34 AM26.6 °F17.6 °F69 %29.81 in1.2 miWest (270°)17.3 mph31.1 mph0.00 inSnowLight Snow
11:37 AM26.6 °F17.6 °F69 %29.81 in4.0 miWest (270°)18.4 mph31.1 mph0.00 inSnowLight Snow
11:51 AM26.1 °F17.1 °F69 %29.87 in4.0 miWest (280°)15.0 mph27.6 mph0.00 inSnowLight Snow
12:18 PM26.6 °F15.8 °F64 %29.81 in9.0 miWest (260°)18.4 mph33.4 mph0.00 inSnowLight Snow
12:51 PM26.1 °F15.1 °F63 %29.87 in10.0 miWest (270°)18.4 mph32.2 mph0.00 inOvercast
1:51 PM26.1 °F16.0 °F66 %29.88 in6.0 miWest (280°)18.4 mph29.9 mph0.00 inSnowLight Snow
2:17 PM26.6 °F17.6 °F69 %29.81 in2.5 miWest (280°)16.1 mph24.2 mph0.00 inSnowLight Snow
2:28 PM24.8 °F19.4 °F80 %29.82 in1.0 miWNW (290°)13.8 mph20.7 mph0.00 inSnowLight Snow
2:43 PM24.8 °F19.4 °F80 %29.83 in0.5 miWest (280°)10.4 mph0.00 inSnowSnow
2:47 PM24.8 °F21.2 °F86 %29.83 in0.2 miWest (270°)13.8 mph0.00 inFog-SnowHeavy Snow
2:51 PM24.1 °F21.0 °F88 %29.92 in0.5 miWest (270°)18.4 mph24.2 mph0.00 inFog-SnowSnow
3:02 PM24.8 °F19.4 °F80 %29.83 in1.5 miWest (280°)13.8 mph21.9 mph0.00 inSnowLight Snow
3:12 PM26.6 °F19.4 °F74 %29.83 in3.0 miWest (270°)12.7 mph20.7 mph0.00 inSnowLight Snow
3:24 PM24.8 °F19.4 °F80 %29.83 in2.0 miWNW (290°)12.7 mph24.2 mph0.00 inSnowLight Snow
3:30 PM24.8 °F19.4 °F80 %29.83 in7.0 miWNW (300°)13.8 mph21.9 mph0.00 inSnowLight Snow
3:41 PM24.8 °F19.4 °F80 %29.83 in2.5 miWNW (300°)13.8 mph19.6 mph0.00 inSnowLight Snow
3:51 PM25.0 °F19.0 °F78 %29.93 in3.0 miWest (280°)10.4 mph0.00 inSnowLight Snow
4:34 PM26.6 °F15.8 °F64 %29.85 in10.0 miWest (270°)15.0 mph25.3 mph0.00 inMostly Cloudy
4:51 PM26.1 °F15.1 °F63 %29.95 in10.0 miWest (260°)18.4 mph27.6 mph0.00 inMostly Cloudy
5:51 PM26.1 °F16.0 °F66 %29.96 in10.0 miWest (270°)16.1 mph24.2 mph0.00 inOvercast
6:51 PM26.1 °F15.1 °F63 %29.96 in10.0 miWest (270°)10.4 mphOvercast
7:51 PM26.1 °F17.1 °F69 %29.96 in10.0 miWest (260°)11.5 mphOvercast
8:51 PM26.1 °F18.0 °F71 %29.95 in10.0 miWSW (250°)10.4 mph0.00 inMostly Cloudy
9:51 PM27.0 °F19.0 °F72 %29.95 in7.0 miWSW (250°)12.7 mph20.7 mph0.00 inSnowLight Snow
10:51 PM27.0 °F19.9 °F75 %29.91 in3.0 miWSW (250°)10.4 mph18.4 mph0.00 inSnowLight Snow
10:54 PM26.6 °F19.4 °F74 %29.81 in2.5 miWSW (250°)10.4 mph18.4 mph0.00 inSnowLight Snow
11:10 PM26.6 °F21.2 °F80 %29.81 in1.8 miWSW (250°)8.1 mph0.00 inSnowLight Snow
11:51 PM26.1 °F23.0 °F88 %29.91 in1.8 miSW (230°)5.8 mph0.01 inSnowLight Snow
Hourly data recorded from KBKW, located miles away from Hico, West Virginia







STORIES FROM OUR PARTNERS